FW6537 Weather Reports


time (UTC)temp
C
wind
direction
speed
KPH
gust
KPH
rain 1hr
cm
rain 24hr
cm
rain mn
cm
humidity
%
barometer
mb
20260509181631 13 47 3.2 8.0 0.00 0.00 0.00 80 1006.3
20260509180136 12 162 0.0 4.8 0.00 0.00 0.00 85 1006.4
20260509174632 12 159 1.6 3.2 0.00 0.00 0.00 86 1006.5
20260509173126 11 158 0.0 0.0 0.00 0.00 0.00 87 1006.5
20260509171635 11 159 1.6 3.2 0.00 0.00 0.00 87 1006.6
20260509170132 11 153 0.0 0.0 0.00 0.00 0.00 88 1006.8
20260509164647 11 154 0.0 0.0 0.00 0.00 0.00 88 1006.8
20260509163142 11 154 0.0 1.6 0.00 0.00 0.00 87 1006.9
20260509161656 11 151 1.6 3.2 0.00 0.00 0.00 87 1007.4
20260509160150 11 146 0.0 0.0 0.00 0.00 0.00 86 1007.7
20260509154644 11 146 0.0 3.2 0.00 0.00 0.00 84 1007.5
20260509153130 11 145 0.0 0.0 0.00 0.00 0.00 84 1007.9
20260509151629 11 144 0.0 0.0 0.00 0.00 0.00 84 1007.9
20260509150123 11 145 0.0 0.0 0.00 0.00 0.00 84 1008.0
20260509144635 11 145 0.0 1.6 0.00 0.05 0.00 83 1008.1
20260509143126 10 162 0.0 0.0 0.00 0.05 0.00 84 1008.0
20260509141632 10 168 3.2 4.8 0.00 0.05 0.00 85 1008.0
20260509140124 9 149 0.0 1.6 0.00 0.05 0.00 85 1008.2
20260509134701 8 158 0.0 1.6 0.00 0.05 0.00 84 1008.3
20260509133135 8 158 0.0 1.6 0.00 0.05 0.00 85 1008.5
20260509131644 7 148 1.6 6.4 0.00 0.05 0.00 83 1008.3
20260509130139 7 137 0.0 3.2 0.00 0.05 0.00 85 1008.3
20260509124633 7 129 0.0 1.6 0.00 0.05 0.00 85 1008.4
20260509123146 6 129 0.0 0.0 0.00 0.05 0.00 86 1008.3
20260509121631 6 129 0.0 0.0 0.00 0.05 0.00 86 1008.4
20260509120126 6 127 0.0 0.0 0.00 0.05 0.00 86 1008.6
20260508183203 10 87 4.8 14.5 0.00 0.15 0.15 67 1011.2